Terminal Aerodrome Forecast
Issued by NWS Riverton, WY

Home | Current Version | Previous Version | Text Only | Print | Product List | Glossary On
Versions: 1 2 3 4 5 6 7 8 9 10 11 12 13
000
FTUS45 KRIW 071123
TAFRIW
TAF
KRIW 071123Z 0712/0812 VRB05KT P6SM BKN100
     FM071600 05006KT P6SM SCT080 SCT120
     FM072100 03007KT P6SM VCTS SCT070CB BKN120
     FM080300 VRB08G15KT P6SM VCSH BKN070
     FM080600 08008KT P6SM BKN100=

USA.gov is the U.S. government's official web portal to all federal, state and local government web resources and services.